TimeMDT,TemperatureF,Dew PointF,Humidity,Sea Level PressureIn,VisibilityMPH,Wind Direction,Wind SpeedMPH,Gust SpeedMPH,PrecipitationIn,Events,Conditions,WindDirDegrees,DateUTC
12:53 AM,55.9,48.9,77,30.14,10.0,NW,4.6,-,N/A,,Clear,320,2013-06-29 06:53:00
1:53 AM,53.1,48.0,83,30.14,10.0,WNW,3.5,-,N/A,,Partly Cloudy,290,2013-06-29 07:53:00
2:53 AM,53.1,48.0,83,30.14,10.0,Calm,Calm,-,N/A,,Clear,0,2013-06-29 08:53:00
3:53 AM,51.1,46.9,86,30.14,10.0,Calm,Calm,-,N/A,,Clear,0,2013-06-29 09:53:00
4:53 AM,50.0,46.9,89,30.14,10.0,Calm,Calm,-,N/A,,Clear,0,2013-06-29 10:53:00
5:53 AM,51.1,46.9,86,30.14,10.0,NNW,3.5,-,N/A,,Partly Cloudy,340,2013-06-29 11:53:00
6:53 AM,60.1,51.1,72,30.11,10.0,Calm,Calm,-,N/A,,Clear,0,2013-06-29 12:53:00
7:53 AM,66.0,51.1,59,30.09,10.0,Calm,Calm,-,N/A,,Clear,0,2013-06-29 13:53:00
8:53 AM,68.0,48.0,49,30.10,10.0,Variable,6.9,-,N/A,,Scattered Clouds,0,2013-06-29 14:53:00
9:53 AM,72.0,48.9,44,30.09,10.0,NNE,8.1,16.1,N/A,,Mostly Cloudy,20,2013-06-29 15:53:00
10:53 AM,71.1,52.0,51,30.11,10.0,East,11.5,-,N/A,,Partly Cloudy,100,2013-06-29 16:53:00
11:53 AM,70.0,51.1,51,30.11,10.0,East,9.2,16.1,N/A,,Mostly Cloudy,100,2013-06-29 17:53:00
12:53 PM,69.1,51.1,53,30.12,10.0,Variable,6.9,-,N/A,,Mostly Cloudy,0,2013-06-29 18:53:00
1:53 PM,70.0,51.1,51,30.12,10.0,ESE,8.1,-,N/A,,Mostly Cloudy,120,2013-06-29 19:53:00
2:53 PM,71.1,50.0,47,30.10,10.0,ENE,8.1,-,N/A,,Scattered Clouds,70,2013-06-29 20:53:00
3:53 PM,70.0,48.9,47,30.11,10.0,East,10.4,-,N/A,,Mostly Cloudy,80,2013-06-29 21:53:00
4:53 PM,72.0,48.0,43,30.10,10.0,East,10.4,17.3,N/A,,Clear,80,2013-06-29 22:53:00
5:53 PM,70.0,45.0,41,30.09,10.0,East,12.7,18.4,N/A,,Clear,80,2013-06-29 23:53:00
6:53 PM,68.0,42.1,39,30.07,10.0,ENE,15.0,19.6,N/A,,Clear,70,2013-06-30 00:53:00
7:53 PM,64.9,39.9,40,30.07,10.0,East,10.4,-,N/A,,Clear,80,2013-06-30 01:53:00
8:53 PM,61.0,39.0,44,30.09,10.0,ENE,5.8,-,N/A,,Clear,60,2013-06-30 02:53:00
9:53 PM,59.0,39.0,48,30.10,10.0,NE,5.8,-,N/A,,Partly Cloudy,40,2013-06-30 03:53:00
10:53 PM,57.0,39.9,53,30.12,10.0,NNE,3.5,-,N/A,,Clear,20,2013-06-30 04:53:00
11:53 PM,53.1,39.9,61,30.13,10.0,Calm,Calm,-,N/A,,Clear,0,2013-06-30 05:53:00